Change the Weather History Date:

Friday, August 23, 2013

  Actual Average Record
Temperature  
Mean Temperature 78 °F -  
Max Temperature 91 °F 99 °F 97 °F (2006)
Min Temperature 64 °F 55 °F 37 °F (2008)
Cooling Degree Days 12    
Growing Degree Days 28 (Base 50)    
Moisture  
Dew Point 60 °F    
Average Humidity 60    
Maximum Humidity 84    
Minimum Humidity 33    
Precipitation  
Precipitation 0.00 in - - ()
Sea Level Pressure  
Sea Level Pressure 29.79 in    
Wind  
Wind Speed 12 mph (SSE)    
Max Wind Speed 17 mph    
Max Gust Speed 20 mph    
Visibility 10 miles    
Events      
Averages and records for this station are not official NWS values.
T = Trace of Precipitation, MM = Missing Value Source: NWS Daily Summary

Daily Weather History Graph

Daily Weather History Graph

Search for Another Location

Airport or City:

Trip Planner

Search our weather history database for the weather conditions in past years. The results will help you decide how hot, cold, wet, or windy it might be!

Date:

Astronomy

Aug. 23, 2013 Rise Set
Actual Time 6:06 AM MDT 7:51 PM MDT
Civil Twilight 5:34 AM MDT 8:23 PM MDT
Nautical Twilight 4:55 AM MDT 9:02 PM MDT
Astronomical Twilight 4:12 AM MDT 9:44 PM MDT
Moon 8:56 PM MDT (8/23) 9:18 AM MDT (8/23)
Length of Visible Light 14h 49m
Length of Day
13h 45m
Waning Gibbous, 91% of the Moon is Illuminated
Aug 23
Waning Gibbous
Aug 28
Last Quarter
Sep 5
New
Sep 12
First Quarter
Sep 19
Full

Hourly Weather History & Observations

Time (MDT) Temp. Heat Index Dew Point Humidity Pressure Visibility Wind Dir Wind Speed Gust Speed Precip Events Conditions
12:51 AM 70.0 °F - 60.1 °F 71% 29.94 in 10.0 mi SSE 12.7 mph - N/A   Overcast
1:51 AM 69.1 °F - 61.0 °F 75% 29.91 in 10.0 mi SE 15.0 mph 19.6 mph N/A   Scattered Clouds
2:51 AM 69.1 °F - 60.1 °F 73% 29.90 in 10.0 mi SE 17.3 mph - N/A   Partly Cloudy
3:51 AM 66.0 °F - 60.1 °F 81% 29.88 in 10.0 mi SE 11.5 mph - N/A   Clear
4:51 AM 64.9 °F - 59.0 °F 81% 29.87 in 10.0 mi ESE 10.4 mph - N/A   Clear
5:51 AM 64.0 °F - 59.0 °F 84% 29.87 in 10.0 mi SE 8.1 mph - N/A   Clear
6:51 AM 64.0 °F - 59.0 °F 84% 29.86 in 10.0 mi SE 9.2 mph - N/A   Clear
7:51 AM 69.1 °F - 60.1 °F 73% 29.85 in 10.0 mi SSE 13.8 mph - N/A   Clear
8:51 AM 69.1 °F - 61.0 °F 75% 29.85 in 10.0 mi SE 12.7 mph - N/A   Clear
9:51 AM 75.9 °F - 62.1 °F 62% 29.83 in 10.0 mi SSE 11.5 mph - N/A   Clear
10:51 AM 82.0 °F 83.0 °F 62.1 °F 51% 29.81 in 10.0 mi SSE 11.5 mph - N/A   Clear
11:51 AM 84.9 °F 85.0 °F 61.0 °F 44% 29.80 in 10.0 mi South 8.1 mph 17.3 mph N/A   Clear
12:51 PM 87.1 °F 87.0 °F 61.0 °F 41% 29.78 in 10.0 mi South 11.5 mph 19.6 mph N/A   Clear
1:51 PM 89.1 °F 88.2 °F 59.0 °F 36% 29.76 in 10.0 mi South 12.7 mph - N/A   Clear
2:51 PM 91.0 °F 90.2 °F 59.0 °F 34% 29.74 in 10.0 mi South 12.7 mph 19.6 mph N/A   Clear
3:51 PM 91.0 °F 90.0 °F 57.9 °F 33% 29.72 in 10.0 mi SSE 13.8 mph - N/A   Clear
4:51 PM 90.0 °F 88.8 °F 57.9 °F 34% 29.70 in 10.0 mi SE 8.1 mph - N/A   Clear
5:51 PM 88.0 °F 87.6 °F 60.1 °F 39% 29.70 in 10.0 mi SSE 12.7 mph - N/A   Clear
6:51 PM 84.0 °F 84.5 °F 62.1 °F 47% 29.70 in 10.0 mi SSE 10.4 mph - N/A   Clear
7:51 PM 77.0 °F - 63.0 °F 62% 29.71 in 10.0 mi SSE 9.2 mph - N/A   Clear
8:51 PM 77.0 °F - 61.0 °F 58% 29.72 in 10.0 mi SSE 11.5 mph - N/A   Clear
9:51 PM 73.9 °F - 61.0 °F 64% 29.71 in 10.0 mi SE 5.8 mph - N/A   Clear
10:51 PM 73.0 °F - 61.0 °F 66% 29.71 in 10.0 mi SE 4.6 mph - N/A   Clear
11:51 PM 73.9 °F - 60.1 °F 62% 29.69 in 10.0 mi SE 6.9 mph - N/A   Clear